Weather History for Panama City Tyndall AFB, FL

Change the Weather History Date:

Saturday, May 25, 2013

  Actual Average Record
Temperature  
Mean Temperature 74 °F -  
Max Temperature 84 °F 82 °F 91 °F (2012)
Min Temperature 64 °F 68 °F 64 °F (2001)
Cooling Degree Days 9    
Growing Degree Days 24 (Base 50)    
Moisture  
Dew Point 64 °F    
Average Humidity 74    
Maximum Humidity 100    
Minimum Humidity 56    
Precipitation  
Precipitation 0.00 in - - ()
Sea Level Pressure  
Sea Level Pressure 30.19 in    
Wind  
Wind Speed 7 mph (ESE)    
Max Wind Speed 13 mph    
Max Gust Speed -    
Visibility 10 miles    
Events      
Averages and records for this station are not official NWS values.
T = Trace of Precipitation, MM = Missing Value Source: NWS Daily Summary

Daily Weather History Graph

Daily Weather History Graph

Search for Another Location

Airport:

Trip Planner

Search our weather history database for the weather conditions in past years. The results will help you decide how hot, cold, wet, or windy it might be!

Date:

Astronomy

May. 25, 2013 Rise Set
Actual Time 5:43 AM CDT 7:35 PM CDT
Civil Twilight 5:16 AM CDT 8:02 PM CDT
Nautical Twilight 4:44 AM CDT 8:34 PM CDT
Astronomical Twilight 4:10 AM CDT 9:08 PM CDT
Moon 8:23 PM CDT (5/25) 6:08 AM CDT (5/25)
Length of Visible Light 14h 45m
Length of Day
13h 51m
Full, 100% of the Moon is Illuminated
May 25
Full
May 31
Last Quarter
Jun 8
New
Jun 16
First Quarter
Jun 23
Full

Hourly Weather History & Observations

Time (CDT) Temp. Heat Index Dew Point Humidity Pressure Visibility Wind Dir Wind Speed Gust Speed Precip Events Conditions
12:58 AM 71.6 °F - 62.6 °F 73% 30.15 in 10.0 mi Variable 6.9 mph - N/A   Clear
1:58 AM 69.3 °F - 60.3 °F 73% 30.14 in 10.0 mi NE 5.8 mph - N/A   Clear
2:58 AM 67.6 °F - 59.0 °F 74% 30.14 in 10.0 mi NNE 5.8 mph - N/A   Clear
3:58 AM 65.1 °F - 57.6 °F 76% 30.16 in 10.0 mi NE 6.9 mph - N/A   Clear
4:58 AM 64.2 °F - 56.7 °F 76% 30.17 in 10.0 mi NE 4.6 mph - N/A   Clear
5:58 AM 64.0 °F - 56.5 °F 76% 30.19 in 10.0 mi NE 9.2 mph - N/A   Clear
6:58 AM 64.8 °F - 56.8 °F 75% 30.21 in 10.0 mi NE 8.1 mph - N/A   Clear
7:58 AM 68.9 °F - 58.5 °F 69% 30.23 in 10.0 mi ENE 6.9 mph - N/A   Clear
8:58 AM 72.9 °F - 60.6 °F 65% 30.24 in 10.0 mi East 9.2 mph - N/A   Clear
9:58 AM 77.0 °F - 64.2 °F 65% 30.25 in 10.0 mi East 11.5 mph - N/A   Clear
10:58 AM 80.6 °F 82.8 °F 66.4 °F 62% 30.24 in 10.0 mi NE 8.1 mph - N/A   Mostly Cloudy
11:58 AM 82.9 °F 85.0 °F 66.0 °F 56% 30.24 in 10.0 mi SSE 9.2 mph - N/A   Partly Cloudy
12:58 PM 84.2 °F 86.8 °F 67.1 °F 56% 30.22 in 10.0 mi SW 11.5 mph - N/A   Scattered Clouds
1:58 PM 84.0 °F 86.8 °F 67.3 °F 57% 30.20 in 10.0 mi SSW 12.7 mph - N/A   Clear
2:58 PM 83.7 °F 87.2 °F 68.7 °F 61% 30.18 in 10.0 mi SW 12.7 mph - N/A   Clear
3:58 PM 82.4 °F 86.3 °F 69.8 °F 66% 30.17 in 10.0 mi SSW 10.4 mph - N/A   Clear
4:58 PM 80.2 °F 84.3 °F 72.3 °F 77% 30.18 in 10.0 mi SSW 12.7 mph - N/A   Clear
5:58 PM 79.2 °F - 71.8 °F 78% 30.18 in 10.0 mi South 10.4 mph - N/A   Clear
6:58 PM 76.6 °F - 69.6 °F 79% 30.17 in 10.0 mi SSW 6.9 mph - N/A   Clear
7:58 PM 75.2 °F - 69.1 °F 81% 30.17 in 10.0 mi SSW 5.8 mph - N/A   Clear
8:58 PM 69.6 °F - 67.1 °F 92% 30.18 in 10.0 mi Calm Calm - N/A   Clear
9:58 PM 67.5 °F - 66.9 °F 98% 30.19 in 10.0 mi Calm Calm - N/A   Clear
10:58 PM 66.0 °F - 66.0 °F 100% 30.20 in 10.0 mi Calm Calm - N/A   Clear
11:58 PM 65.3 °F - 65.3 °F 100% 30.18 in 10.0 mi Calm Calm - N/A   Clear